This is the latest recevied weather packets stored in our database for station/object KG5WBN. If no packets are shown the sender has not sent any weather packets the latest 10 day(s).
| Time | Temp. | Humidity | Pressure | Rain* | Wind** | Luminosity | Snow |
|---|---|---|---|---|---|---|---|
| 1788037974 | 35° C | 42% | 1014.2 hPa | 0 mm | - | 234 W/m² | - |
| 1788037669 | 35° C | 42% | 1014.2 hPa | 0 mm | - | 264 W/m² | - |
| 1788037364 | 35° C | 42% | 1014.6 hPa | 0 mm | - | 293 W/m² | - |
| 1788037063 | 35.56° C | 42% | 1014.2 hPa | 0 mm | - | 349 W/m² | - |
| 1788036759 | 35° C | 42% | 1014.6 hPa | 0 mm | - | 372 W/m² | - |
| 1788036456 | 34.44° C | 42% | 1014.2 hPa | 0 mm | - | 363 W/m² | - |
| 1788036151 | 35° C | 42% | 1014.6 hPa | 0 mm | - | 370 W/m² | - |
| 1788035850 | 35° C | 42% | 1014.6 hPa | 0 mm | - | 373 W/m² | - |
| 1788035545 | 35° C | 42% | 1014.6 hPa | 0 mm | - | 359 W/m² | - |
| 1788035241 | 34.44° C | 42% | 1014.9 hPa | 0 mm | - | 363 W/m² | - |
| 1788034936 | 34.44° C | 43% | 1015.2 hPa | 0 mm | - | 354 W/m² | - |
| 1788034633 | 34.44° C | 42% | 1014.9 hPa | 0 mm | - | 357 W/m² | - |
| 1788034329 | 35° C | 42% | 1015.2 hPa | 0 mm | - | 350 W/m² | - |
| 1788034028 | 35° C | 42% | 1015.2 hPa | 0 mm | - | 318 W/m² | - |
| 1788033723 | 33.89° C | 43% | 1015.2 hPa | 0 mm | - | 315 W/m² | - |
| 1788033422 | 33.89° C | 43% | 1015.2 hPa | 0 mm | - | 301 W/m² | - |
| 1788033117 | 33.89° C | 43% | 1015.2 hPa | 0 mm | - | 316 W/m² | - |
| 1788032812 | 34.44° C | 42% | 1015.2 hPa | 0 mm | - | 319 W/m² | - |
| 1788032511 | 33.89° C | 43% | 1015.6 hPa | 0 mm | - | 307 W/m² | - |
| 1788032207 | 33.89° C | 43% | 1015.2 hPa | 0 mm | - | 335 W/m² | - |
| 1788031904 | 33.89° C | 43% | 1015.6 hPa | 0 mm | - | 289 W/m² | - |
| 1788031604 | 33.89° C | 43% | 1015.9 hPa | 0 mm | - | 271 W/m² | - |
| 1788031303 | 34.44° C | 42% | 1015.6 hPa | 0 mm | - | 298 W/m² | - |
| 1788031002 | 34.44° C | 42% | 1015.6 hPa | 0 mm | - | 368 W/m² | - |
| 1788030697 | 34.44° C | 42% | 1015.6 hPa | 0 mm | - | 347 W/m² | - |
* Rain latest hour (hover to see other rain measurements)
** Current wind speed in m/s (hover to see current wind gust speed)